Location: La Bastide
(43.1661°N, 1.2755°E)
Time: 07:34:29
(UTC+00:00)

Cosmos 1953 Rocket - Pass Details

Date: 23 March 2026
Orbit: 599 x 626 km, 82.5° (Epoch: 18 April)

Event Time Altitude Azimuth Distance (km) Brightness Sun altitude
Rises 04:05:38 0° 4° (N) 2,900 7.3 -20.0°
Reaches altitude 10° 04:08:14 10° 18° (NNE) 1,994 6.7 -19.5°
Maximum altitude 04:11:49 24° 73° (ENE) 1,297 6.1 -18.9°
Drops below altitude 10° 04:15:25 10° 127° (SE) 1,992 6.6 -18.3°
Sets 04:18:00 0° 142° (SE) 2,896 7.3 -17.8°
